When you browse on this site, cookies collect data to enhance your experience and personalize the content and advertising you see.
Visit our Privacy Policy to learn more. By continuing to use the site, you agree to this use of cookies and data.
  • In Hungary
  • List of Countries
  • For 7 days
  • Water Temperature
  • Satellite Maps
  • Weather Map
  • News
  • Weather Widgets
  • user-avatar
    Login

    Hourly Weather Kalat

    Today, 26 April, Friday

    Time Temperature Precipitation Wind Pressure Humidity
    00:00 -5°C° 0 mm 4 mps 475 mmHg 80%
    01:00 -5°C° 0 mm 4 mps 474 mmHg 80%
    02:00 -7°C° 0 mm 4 mps 474 mmHg 80%
    03:00 -7°C° 0 mm 4 mps 474 mmHg 80%
    04:00 -8°C° 0 mm 4 mps 473 mmHg 79%
    05:00 -8°C° 0 mm 6 mps 473 mmHg 80%
    06:00 -6°C° 0 mm 5 mps 474 mmHg 78%
    07:00 -5°C° 0 mm 5 mps 475 mmHg 75%
    08:00 -3°C° 0 mm 4 mps 476 mmHg 73%
    09:00 -2°C° 0 mm 5 mps 477 mmHg 69%
    10:00 -1°C° 0 mm 5 mps 477 mmHg 66%
    11:00 0°C° 0 mm 5 mps 478 mmHg 63%
    12:00 0°C° 0.1 mm 5 mps 478 mmHg 62%
    13:00 0°C° 0.1 mm 5 mps 479 mmHg 61%
    14:00 +1°C° 0.1 mm 5 mps 479 mmHg 60%
    15:00 0°C° 0.2 mm 4 mps 478 mmHg 61%
    16:00 +1°C° 0.2 mm 3 mps 478 mmHg 62%
    17:00 +1°C° 0.2 mm 3 mps 478 mmHg 63%
    18:00 0°C° 0.2 mm 3 mps 477 mmHg 66%
    19:00 -1°C° 0.2 mm 3 mps 477 mmHg 70%
    20:00 -2°C° 0.2 mm 3 mps 477 mmHg 74%
    21:00 -2°C° 0.1 mm 3 mps 477 mmHg 75%
    22:00 -2°C° 0.1 mm 3 mps 476 mmHg 76%
    23:00 -4°C° 0.1 mm 4 mps 476 mmHg 77%

    Tomorrow, 27 April, Saturday

    Time Temperature Precipitation Wind Pressure Humidity
    00:00 -4°C° 0.1 mm 4 mps 476 mmHg 78%
    01:00 -4°C° 0.1 mm 4 mps 476 mmHg 79%
    02:00 -5°C° 0.1 mm 4 mps 475 mmHg 79%
    03:00 -5°C° 0 mm 4 mps 475 mmHg 79%
    04:00 -5°C° 0 mm 4 mps 475 mmHg 79%
    05:00 -6°C° 0 mm 3 mps 474 mmHg 80%
    06:00 -5°C° 0 mm 3 mps 475 mmHg 76%
    07:00 -4°C° 0 mm 3 mps 476 mmHg 73%
    08:00 -2°C° 0 mm 3 mps 477 mmHg 69%
    09:00 -1°C° 0.1 mm 3 mps 477 mmHg 66%
    10:00 -1°C° 0.1 mm 4 mps 478 mmHg 63%
    11:00 -1°C° 0.1 mm 4 mps 478 mmHg 60%
    12:00 0°C° 0.3 mm 4 mps 478 mmHg 61%
    13:00 +1°C° 0.3 mm 3 mps 478 mmHg 62%
    14:00 +1°C° 0.3 mm 3 mps 478 mmHg 63%
    15:00 +1°C° 0.4 mm 3 mps 478 mmHg 61%
    16:00 +2°C° 0.4 mm 2 mps 478 mmHg 59%
    17:00 +2°C° 0.4 mm 2 mps 478 mmHg 57%
    18:00 +1°C° 0.5 mm 2 mps 477 mmHg 64%
    19:00 +1°C° 0.5 mm 1 mps 477 mmHg 70%
    20:00 0°C° 0.5 mm 1 mps 476 mmHg 77%
    21:00 0°C° 0.6 mm 1 mps 476 mmHg 79%
    22:00 -1°C° 0.6 mm 1 mps 476 mmHg 81%
    23:00 -1°C° 0.6 mm 1 mps 476 mmHg 83%

    Day after tomorrow, 28 April, Sunday

    Time Temperature Precipitation Wind Pressure Humidity
    00:00 -3°C° 0.5 mm 2 mps 476 mmHg 83%
    01:00 -3°C° 0.5 mm 2 mps 475 mmHg 83%
    02:00 -4°C° 0.5 mm 3 mps 475 mmHg 84%
    03:00 -4°C° 0.1 mm 2 mps 475 mmHg 82%
    04:00 -5°C° 0.1 mm 2 mps 474 mmHg 80%
    05:00 -5°C° 0.1 mm 2 mps 473 mmHg 78%
    06:00 -4°C° 0 mm 2 mps 474 mmHg 74%
    07:00 -3°C° 0 mm 2 mps 475 mmHg 69%
    08:00 -2°C° 0 mm 2 mps 476 mmHg 65%
    09:00 -1°C° 0 mm 2 mps 477 mmHg 60%
    10:00 +1°C° 0 mm 2 mps 477 mmHg 54%
    11:00 +2°C° 0 mm 2 mps 478 mmHg 49%
    12:00 +1°C° 0 mm 3 mps 478 mmHg 47%
    13:00 +2°C° 0 mm 3 mps 478 mmHg 46%
    14:00 +3°C° 0 mm 3 mps 478 mmHg 44%
    15:00 +2°C° 0 mm 3 mps 478 mmHg 44%
    16:00 +3°C° 0 mm 2 mps 478 mmHg 45%
    17:00 +3°C° 0 mm 2 mps 477 mmHg 45%
    18:00 +2°C° 0 mm 2 mps 476 mmHg 48%
    19:00 -1°C° 0 mm 2 mps 476 mmHg 52%
    20:00 0°C° 0 mm 1 mps 475 mmHg 55%
    21:00 -2°C° 0 mm 2 mps 475 mmHg 56%
    22:00 -3°C° 0 mm 2 mps 475 mmHg 56%
    23:00 -4°C° 0 mm 3 mps 474 mmHg 57%

    29 April, Monday

    Time Temperature Precipitation Wind Pressure Humidity
    00:00 -4°C° 0 mm 3 mps 474 mmHg 57%
    01:00 -5°C° 0 mm 3 mps 474 mmHg 57%
    02:00 -5°C° 0 mm 3 mps 473 mmHg 58%
    03:00 -5°C° 0 mm 3 mps 473 mmHg 57%
    04:00 -5°C° 0 mm 3 mps 473 mmHg 57%
    05:00 -6°C° 0 mm 3 mps 472 mmHg 57%
    06:00 -4°C° 0 mm 3 mps 473 mmHg 56%
    07:00 -2°C° 0 mm 3 mps 474 mmHg 55%
    08:00 -1°C° 0 mm 3 mps 475 mmHg 54%
    09:00 +1°C° 0 mm 3 mps 476 mmHg 52%
    10:00 +1°C° 0 mm 4 mps 477 mmHg 50%
    11:00 +2°C° 0 mm 5 mps 477 mmHg 48%
    12:00 +2°C° 0.1 mm 5 mps 477 mmHg 49%
    13:00 +2°C° 0.1 mm 5 mps 477 mmHg 50%
    14:00 +2°C° 0.1 mm 5 mps 477 mmHg 51%
    15:00 +2°C° 0.2 mm 5 mps 476 mmHg 55%
    16:00 +1°C° 0.2 mm 4 mps 476 mmHg 59%
    17:00 +1°C° 0.2 mm 4 mps 476 mmHg 63%
    18:00 0°C° 0.3 mm 4 mps 475 mmHg 67%
    19:00 -1°C° 0.3 mm 4 mps 475 mmHg 70%
    20:00 -2°C° 0.3 mm 4 mps 475 mmHg 74%
    21:00 -2°C° 0.2 mm 4 mps 475 mmHg 75%
    22:00 -2°C° 0.2 mm 4 mps 475 mmHg 76%
    23:00 -3°C° 0.2 mm 4 mps 474 mmHg 76%

    30 April, Tuesday

    Time Temperature Precipitation Wind Pressure Humidity
    00:00 -3°C° 0.1 mm 4 mps 474 mmHg 77%
    01:00 -3°C° 0.1 mm 4 mps 473 mmHg 78%
    02:00 -4°C° 0.1 mm 3 mps 473 mmHg 79%
    03:00 -4°C° 1 mm 3 mps 473 mmHg 81%
    04:00 -4°C° 1 mm 3 mps 473 mmHg 84%
    05:00 -4°C° 1 mm 3 mps 473 mmHg 86%
    06:00 -2°C° 0.3 mm 3 mps 474 mmHg 82%
    07:00 -1°C° 0.3 mm 3 mps 475 mmHg 78%
    08:00 -2°C° 0.3 mm 4 mps 475 mmHg 75%
    09:00 -1°C° 0.2 mm 4 mps 476 mmHg 71%
    10:00 0°C° 0.2 mm 4 mps 477 mmHg 68%
    11:00 0°C° 0.2 mm 4 mps 477 mmHg 64%
    12:00 0°C° 0.3 mm 4 mps 477 mmHg 65%
    13:00 0°C° 0.3 mm 4 mps 477 mmHg 65%
    14:00 +1°C° 0.3 mm 3 mps 477 mmHg 65%
    15:00 0°C° 0.6 mm 3 mps 476 mmHg 69%
    16:00 -1°C° 0.6 mm 3 mps 475 mmHg 73%
    17:00 -1°C° 0.6 mm 3 mps 475 mmHg 76%
    18:00 -2°C° 0.8 mm 3 mps 474 mmHg 80%
    19:00 -4°C° 0.8 mm 3 mps 474 mmHg 83%
    20:00 -5°C° 0.8 mm 3 mps 473 mmHg 86%
    21:00 -5°C° 0.2 mm 2 mps 473 mmHg 85%
    22:00 -6°C° 0.2 mm 2 mps 472 mmHg 84%
    23:00 -6°C° 0.2 mm 2 mps 472 mmHg 82%

    1 May, Wednesday

    Time Temperature Precipitation Wind Pressure Humidity
    00:00 -6°C° 0 mm 1 mps 471 mmHg 82%
    01:00 -7°C° 0 mm 1 mps 470 mmHg 82%
    02:00 -8°C° 0 mm 1 mps 469 mmHg 81%
    03:00 -8°C° 0 mm 1 mps 469 mmHg 80%
    04:00 -9°C° 0 mm 1 mps 469 mmHg 79%
    05:00 -9°C° 0 mm 1 mps 468 mmHg 77%
    06:00 -8°C° 0 mm 1 mps 470 mmHg 71%
    07:00 -6°C° 0 mm 1 mps 471 mmHg 64%
    08:00 -4°C° 0 mm 1 mps 472 mmHg 58%
    09:00 -2°C° 0 mm 1 mps 473 mmHg 50%
    10:00 -1°C° 0 mm 1 mps 474 mmHg 42%
    11:00 +1°C° 0 mm 1 mps 475 mmHg 35%
    12:00 +1°C° 0 mm 1 mps 475 mmHg 36%
    13:00 +1°C° 0 mm 1 mps 475 mmHg 36%
    14:00 +2°C° 0 mm 1 mps 475 mmHg 37%
    15:00 +2°C° 0 mm 1 mps 475 mmHg 41%
    16:00 +2°C° 0 mm 1 mps 475 mmHg 45%
    17:00 +1°C° 0 mm 2 mps 475 mmHg 49%
    18:00 -2°C° 0 mm 2 mps 474 mmHg 54%
    19:00 -1°C° 0 mm 1 mps 473 mmHg 58%
    20:00 -2°C° 0 mm 1 mps 472 mmHg 62%
    21:00 -3°C° 0 mm 1 mps 472 mmHg 63%
    22:00 -4°C° 0 mm 1 mps 471 mmHg 65%
    23:00 -4°C° 0 mm 1 mps 471 mmHg 66%
    Show more